Weather in Vyatskie Polyani

Russia / Kirov Oblast     56°13′22″N   51°04′29″E
temp.,
°C
wind,
m/s
gust,
m/s
humid.,
%
clouds,
%
prec.,
mm/h
press.,
hPa
HPBL,
m
1 july, fri
fri100:00+7n3993100 0.0 1011261
03:00+7n3795100 0.0 1012299
06:00+7nne359197 0.0 1013360
09:00+13ene3465100 0.0 10131106
12:00+17e355340 0.0 10141696
15:00+19ene465117 0.0 10141889
18:00+17ne59789 0.4 1014558
21:00+12nne36945 1.5 1016115
2 july, sat
sat200:00+10nne35935 0.1 101687
03:00+9nne23895 0.1 101632
06:00+12nne258014 0.0 1016176
09:00+18nne355895 0.0 1016775
12:00+21n334684 0.0 10141737
15:00+22nw344857 0.0 10131924
18:00+18nw387389 0.0 1012206
21:00+15ne1176100 0.0 101211
3 july, sun
sun300:00+14nne2278100 0.0 101239
03:00+13nne2587100 0.0 1012136
06:00+15ne348263 0.0 1012286
09:00+18nne447077 0.0 1012612
12:00+20nne346156 0.1 10121140
15:00+18nne5774100 0.8 1012805
18:00+17nne597136 0.1 1012790
21:00+12nne22820 0.1 101313
4 july, mon
mon400:00+10n34924 0.0 101372
03:00+9n38965 0.0 1013177
06:00+13nne498016 0.0 1014415
09:00+18nne576371 0.0 10141397
12:00+20ne575198 0.2 10142195
15:00+21n465283 0.2 10141716
18:00+18n357188 0.0 1014125
21:00+14nw2278100 0.0 101511
5 july, tue
tue500:00+15nw366938 0.0 1015135
03:00+11nw3583100 0.0 101672
06:00+15nw357691 0.0 1016186
09:00+20nnw3560100 0.0 1015518
12:00+23nw455138 0.0 10151358
15:00+24nw455382 0.0 10141480
18:00+22wnw37705 0.0 1014252
21:00+17wnw22815 0.0 101425